Dewpoint
63 58 57 51 47 42 40 30 14 16 17 13 18 15 4 20 25 22 20 22 18 33 42 54 51 51 44 46 45 54 59 50 50 47 45 51 65 68 70 71 72 72 72 73 73 73 73 73 72 72 72 72 72 72 72 72 72 72 71 71 71 71 71 71 71 70 70 70 70 70 69 69 69 69 69 68 68 68 68 68 67 66 66 66 67 67 67 69 69 69 69 69 69 69 70 70 69
53 51 54 50 44 39 37 25 22 23 20 11 12 19 16 22 28 23 21 21 19 50 55 58 59 60 61 61 61 58 55 63 64 60 64 68 68 69 71 72 72 72 72 73 73 73 73 72 72 72 72 72 72 72 71 72 72 71 71 71 71 70 71 71 70 70 70 70 70 69 69 69 69 68 68 68 68 68 69 68 67 66 66 66 67 68 69 69 68 68 68 69 70 69 69 69 68
52 45 46 45 40 41 39 30 14 21 18 9 4 18 19 19 19 19 21 22 22 37 54 56 57 57 58 57 45 49 48 63 65 66 66 67 66 68 72 72 72 72 72 73 73 72 72 72 72 72 71 72 72 71 71 71 71 71 72 70 70 70 71 70 70 70 70 70 70 69 69 69 69 69 69 68 68 68 68 68 68 68 67 67 68 68 69 68 68 68 68 69 69 69 69 67 67
52 51 43 40 37 34 32 30 24 18 14 9 11 13 18 20 19 21 23 17 12 25 34 56 55 58 57 55 55 61 59 62 64 66 65 66 65 70 72 72 72 72 73 73 72 72 72 73 72 72 72 72 72 71 71 71 70 70 70 70 70 70 70 70 70 70 70 70 70 70 69 69 69 68 68 68 68 68 69 69 68 68 69 68 69 69 69 69 68 69 69 69 69 69 67 68 69
43 50 46 39 33 33 32 30 28 22 12 20 6 10 25 22 19 19 13 11 13 11 32 56 55 57 59 58 59 53 54 63 65 67 66 67 70 71 72 72 72 72 72 72 72 72 72 72 72 72 72 72 71 72 72 71 70 70 70 70 70 70 71 70 70 70 70 70 70 69 69 69 69 68 68 68 68 69 70 70 70 70 70 70 69 69 68 68 69 69 69 69 69 67 68 69 69
43 43 46 45 36 33 27 25 26 22 12 19 15 17 20 20 19 21 21 19 15 16 25 55 53 55 60 61 61 57 62 59 64 66 66 67 70 71 72 72 72 72 72 72 72 72 72 73 73 72 72 72 72 72 72 71 70 70 70 70 70 70 71 70 70 70 70 70 69 69 69 69 69 68 68 70 71 71 71 70 70 69 69 69 69 68 68 68 69 69 69 69 68 68 69 69 69
38 41 39 35 34 34 26 25 25 26 23 22 22 21 22 24 22 23 23 21 22 54 58 56 59 58 57 59 61 64 64 64 65 65 67 69 71 71 72 72 71 71 72 72 72 72 72 73 73 72 73 72 73 72 72 71 70 70 71 70 70 70 70 70 70 70 70 69 70 69 69 68 68 68 69 70 70 70 70 70 70 69 69 69 69 69 69 70 69 69 68 67 68 69 69 69 69
47 39 36 32 30 28 27 27 28 27 24 25 26 25 26 26 26 27 26 21 17 47 55 58 59 56 55 62 57 62 64 65 66 69 70 70 71 71 72 71 71 71 72 72 72 72 73 73 73 72 72 73 73 72 72 71 70 71 70 70 70 70 70 70 70 70 70 69 69 69 69 68 68 68 68 69 70 71 71 70 70 70 70 70 70 69 69 70 70 69 69 69 69 69 69 69 69
38 32 36 26 27 25 21 22 23 27 27 27 26 30 40 34 33 31 27 23 18 40 57 57 58 46 53 59 58 63 64 67 69 70 70 71 71 71 71 71 71 71 71 71 72 72 72 73 73 72 73 73 73 73 72 72 72 72 71 71 71 71 71 70 70 70 71 70 70 69 69 69 69 69 69 70 71 71 71 70 70 70 70 70 70 69 70 70 69 69 69 69 69 69 69 69 69
35 31 29 26 25 21 23 20 20 17 20 20 21 19 19 20 21 26 22 17 17 56 57 61 58 49 59 59 59 61 62 68 69 70 70 71 71 71 71 71 71 71 71 71 72 72 72 73 73 72 73 73 73 73 73 73 72 72 72 71 72 71 71 71 71 71 71 70 70 70 69 69 69 69 70 71 71 71 70 70 70 70 70 70 70 70 70 69 70 70 70 70 69 69 69 69 69
33 31 31 23 24 19 20 17 22 21 21 24 22 22 22 22 22 20 18 17 50 55 57 60 56 59 60 61 63 66 66 67 68 68 70 70 71 71 70 71 71 71 71 72 72 72 72 72 73 73 73 73 73 73 73 72 72 72 72 72 72 72 71 72 71 71 70 70 70 70 70 70 70 70 71 71 71 71 71 70 70 70 69 69 70 70 70 69 70 70 70 69 69 69 69 69 69
30 30 24 25 24 18 20 21 21 22 24 23 20 20 17 22 19 16 17 31 53 57 57 58 52 60 59 61 60 64 66 66 67 69 69 70 70 71 71 71 71 71 72 72 72 72 72 72 72 73 73 73 73 73 73 72 72 72 72 72 72 72 72 72 72 71 71 70 71 71 70 70 70 70 71 71 71 71 70 70 70 70 70 69 70 70 70 70 70 70 70 69 70 70 70 69 69
30 25 23 20 21 23 28 23 22 34 26 20 19 17 19 17 15 14 30 52 56 56 52 56 61 60 57 59 64 65 64 65 67 68 69 70 70 71 71 71 71 72 72 72 71 71 72 72 71 72 72 73 73 73 72 72 72 72 72 72 72 72 72 72 71 71 71 71 71 70 70 70 71 71 71 71 71 71 70 70 70 70 70 70 70 70 70 70 70 70 70 70 70 70 70 70 68
31 26 23 19 21 21 18 19 19 20 19 19 15 14 14 17 17 32 52 53 53 51 56 59 61 62 61 62 62 63 64 65 66 68 69 70 70 71 71 71 71 71 72 72 71 71 71 71 71 71 72 72 72 73 73 72 72 72 72 72 72 72 72 72 72 72 72 71 70 70 71 71 71 71 71 71 71 70 70 70 70 70 70 70 70 70 70 70 70 70 70 70 70 70 70 70 69
32 30 29 25 22 21 20 19 19 19 18 14 13 12 13 24 33 48 54 54 55 59 62 63 63 54 54 58 57 63 64 65 66 68 69 70 70 70 71 71 71 71 71 71 71 71 71 71 71 71 72 72 72 72 72 72 72 72 72 72 72 72 72 72 72 72 71 71 70 70 70 70 71 72 71 71 70 70 70 70 70 70 70 70 70 70 70 70 70 70 70 70 70 70 70 70 68
34 24 26 25 21 20 20 20 17 14 15 13 12 10 14 25 26 45 48 54 58 62 60 59 60 54 60 58 60 64 65 65 66 69 69 69 70 70 70 70 71 71 71 71 71 71 71 71 71 71 71 71 71 71 71 71 71 72 72 72 72 72 72 72 72 71 71 71 71 70 71 71 71 71 71 70 71 70 69 69 70 70 70 70 70 70 70 70 70 70 70 70 70 69 69 69 68
25 28 25 20 20 17 16 17 12 10 11 10 11 10 8 15 23 57 59 60 59 59 61 63 62 64 62 61 63 65 66 66 68 68 69 68 68 68 69 69 69 70 70 71 70 71 71 71 71 71 71 71 71 71 71 71 71 71 72 72 72 72 72 72 71 71 71 71 70 71 71 70 70 70 70 70 71 70 70 69 69 70 70 70 70 70 70 70 71 70 70 70 70 69 68 68 67
26 27 23 20 19 16 18 14 10 9 11 10 11 13 11 16 40 52 56 57 59 60 61 62 64 64 65 64 65 66 65 66 67 67 67 67 67 67 67 68 68 68 69 69 70 70 71 70 71 71 70 71 71 71 71 70 70 71 71 70 70 71 71 71 70 70 71 70 70 70 70 70 69 69 70 70 70 70 70 69 69 70 70 70 69 69 70 70 70 70 70 69 69 69 69 67 68
24 23 23 21 18 17 20 18 16 12 11 11 13 13 11 7 25 31 53 54 56 56 57 61 62 63 64 65 65 65 65 65 65 66 66 66 66 66 66 67 68 67 68 68 69 70 70 70 70 70 70 70 70 70 70 70 70 70 70 70 70 70 70 70 70 70 69 69 69 69 70 69 69 69 70 70 70 70 70 69 69 70 69 69 69 69 70 70 70 70 70 69 67 67 66 66 66
29 21 18 19 20 18 16 15 14 12 13 13 13 14 7 6 10 17 46 53 54 53 53 58 60 62 63 64 65 64 64 65 65 66 65 66 66 66 66 67 67 67 67 68 68 69 69 69 70 70 70 70 70 70 69 69 69 70 70 69 69 69 69 69 69 69 69 69 69 69 68 69 69 69 70 70 70 70 69 69 69 69 69 69 70 69 70 69 70 69 69 67 66 65 65 65 65
24 24 19 18 18 17 18 16 15 15 16 14 12 13 9 7 9 49 52 47 48 50 55 56 59 63 63 64 64 64 64 64 65 65 65 65 65 64 64 65 67 67 68 69 68 68 70 70 70 70 70 70 70 70 70 70 70 70 70 70 69 69 69 68 68 68 68 69 69 68 68 68 68 69 69 69 68 68 67 67 67 66 65 65 67 64 63 64 64 64 64 64 63 64 63 63 63
21 26 22 18 15 15 16 15 15 15 15 13 12 10 9 10 42 53 48 44 41 46 49 57 63 64 64 64 64 64 64 64 64 64 64 63 63 63 63 64 66 67 68 67 67 68 69 70 70 70 70 70 70 70 70 70 70 70 70 70 70 70 69 68 68 68 68 68 68 68 68 67 68 68 67 67 67 66 67 66 65 65 65 65 65 63 62 61 62 62 62 62 63 63 63 63 63
17 20 15 16 16 16 17 15 14 13 12 11 10 10 9 10 23 38 41 34 34 40 45 61 64 64 65 65 64 63 63 63 63 64 64 63 62 62 62 64 65 66 66 65 65 67 69 69 69 70 69 69 70 70 70 70 70 70 70 70 70 69 69 69 68 68 68 68 67 68 67 67 67 68 67 67 67 66 66 66 65 65 64 64 64 63 62 61 61 61 60 61 61 63 63 62 62
21 20 17 16 14 14 15 14 14 13 13 12 11 12 8 8 7 17 26 20 26 61 60 64 65 65 65 64 64 63 63 63 63 64 63 62 62 62 62 64 65 65 65 64 64 67 68 68 69 69 69 69 69 70 70 69 69 69 70 70 69 69 69 68 68 67 68 68 68 68 68 67 67 67 67 68 67 67 66 65 64 64 64 64 64 64 62 61 60 60 60 60 60 61 62 63 62
21 21 19 17 16 14 14 13 13 13 12 13 12 11 10 9 8 9 10 21 53 63 64 64 64 64 64 64 64 64 63 63 63 63 63 62 62 63 63 64 64 64 63 64 65 66 68 68 69 69 69 69 69 69 69 69 69 69 70 69 69 70 68 68 67 67 67 68 68 67 67 66 66 67 67 67 67 67 66 65 64 64 63 63 64 64 62 61 60 60 60 60 60 61 62 62 62
17 17 17 17 16 16 14 12 11 10 11 12 11 10 10 9 10 7 7 29 60 63 64 63 64 64 64 64 64 64 63 62 61 61 62 62 62 63 63 63 63 63 63 64 65 66 67 69 68 68 68 69 69 69 69 68 69 69 69 68 69 69 68 68 67 67 67 67 67 67 67 66 66 66 67 67 67 66 66 65 65 63 63 63 64 63 62 61 60 60 61 60 60 61 62 63 62
18 18 19 18 17 13 12 11 10 14 10 11 9 9 9 9 8 4 15 48 62 63 63 63 63 64 64 64 64 63 62 61 60 61 61 62 62 63 63 63 63 63 64 64 65 66 67 68 68 68 68 69 69 68 68 68 68 68 68 68 68 67 67 67 67 67 67 66 66 66 66 66 65 65 66 67 67 66 66 66 65 63 63 62 63 62 62 61 60 60 61 60 61 62 62 63 63
14 15 18 9 9 8 8 8 7 8 6 9 9 8 10 10 7 5 13 57 61 62 62 63 63 64 64 64 64 63 62 61 61 60 60 61 61 62 64 63 62 62 62 63 64 66 67 67 67 68 68 68 68 68 68 68 68 68 67 67 67 66 67 67 67 67 67 66 66 66 66 66 66 65 66 66 66 65 65 65 64 63 63 62 62 61 63 62 62 62 62 62 62 62 62 63 63
12 10 9 9 7 5 7 5 7 7 6 10 9 8 7 8 6 7 9 56 60 61 62 63 63 64 64 64 64 63 62 61 61 60 59 60 61 62 63 63 63 62 62 63 64 66 66 66 66 67 68 67 67 67 67 68 67 67 66 66 66 66 66 66 66 67 67 66 66 66 65 66 66 65 65 65 66 65 64 64 63 64 63 63 62 63 63 63 62 62 62 62 62 62 63 63 63
12 11 9 6 6 2 4 10 12 8 9 9 8 7 7 7 8 8 13 58 59 60 61 62 63 64 64 64 64 63 62 62 61 60 60 61 61 62 62 63 64 63 63 63 64 64 65 66 66 67 67 67 67 67 67 67 66 66 66 66 66 65 66 66 67 66 67 66 65 65 65 66 66 65 65 65 65 64 64 64 63 63 63 63 63 63 62 62 62 62 62 63 63 62 62 63 63
9 10 8 9 5 6 6 11 12 7 12 9 9 11 7 8 7 9 11 58 58 59 60 61 62 63 64 64 64 63 61 62 61 61 61 61 61 62 62 63 64 63 64 63 64 64 65 66 67 67 67 67 67 67 66 66 66 66 65 66 65 65 66 66 66 66 66 66 65 65 66 66 66 65 65 65 64 64 63 63 63 63 63 64 63 63 63 62 62 62 63 62 61 62 62 63 63
16 7 8 15 6 8 7 15 12 7 8 11 8 15 8 7 6 7 16 55 56 58 59 59 61 62 63 63 63 62 61 61 62 62 62 62 62 62 62 63 63 63 63 63 65 65 65 66 66 66 67 67 67 66 65 65 65 65 65 66 65 65 66 66 66 66 66 66 66 65 65 66 66 65 65 65 64 64 64 63 63 63 64 63 63 63 63 62 62 62 62 62 61 61 62 62 64
16 10 18 13 8 6 4 7 10 11 10 7 8 6 6 6 9 16 43 56 55 56 58 58 59 61 62 63 63 62 61 61 61 61 61 61 61 62 62 62 63 64 64 64 64 65 65 65 66 66 66 66 66 65 65 65 65 65 65 66 65 65 65 66 67 67 66 66 66 65 65 66 66 65 65 64 64 64 64 63 64 64 64 63 63 63 63 62 62 62 62 63 62 61 62 62 63
12 15 11 19 6 9 4 7 7 8 6 4 6 6 9 9 10 22 49 55 55 54 56 56 57 59 61 62 62 61 61 61 61 61 61 61 62 62 61 62 64 64 64 64 64 65 65 65 65 65 65 66 65 65 65 65 65 65 65 65 65 65 65 65 66 67 66 66 65 65 65 65 65 65 65 64 64 64 64 64 64 64 64 63 63 62 62 62 62 62 61 62 62 62 62 62 62
12 14 13 11 12 12 7 8 8 9 8 6 9 9 9 8 9 10 24 39 53 53 52 55 55 57 60 61 61 60 61 61 61 62 61 61 62 62 62 62 62 64 64 64 64 64 63 64 64 64 64 65 65 65 64 64 64 65 65 65 64 64 64 65 66 67 66 66 65 64 65 65 65 65 65 64 64 64 63 63 63 63 63 63 62 62 62 62 62 61 62 61 62 62 63 63 63
12 14 15 11 10 10 8 9 10 10 11 8 7 7 8 10 20 30 37 44 47 50 52 53 54 56 58 60 61 60 60 61 60 60 61 63 63 63 62 63 63 63 62 63 63 63 63 64 65 64 64 65 65 65 64 64 64 64 64 64 64 64 64 64 65 66 66 65 65 65 65 65 65 65 65 64 64 64 63 63 63 63 63 63 62 62 62 62 61 61 61 61 62 62 64 64 64
13 12 11 10 10 10 11 11 11 11 10 12 10 12 14 25 32 38 40 43 46 45 49 50 52 53 55 58 59 59 60 60 59 60 61 63 63 63 63 63 63 63 63 63 63 63 63 64 64 64 64 64 64 64 64 64 63 64 64 64 63 63 64 64 64 66 66 65 65 65 65 65 65 65 65 64 64 64 63 63 63 63 63 63 62 62 62 62 62 62 62 62 62 62 62 64 64
9 11 9 10 10 10 10 10 13 16 18 16 12 20 26 31 37 43 46 48 49 48 48 49 51 52 54 57 58 59 58 58 59 60 61 62 63 63 63 63 63 63 63 63 63 63 64 64 64 64 64 64 64 64 64 63 63 64 64 64 64 64 64 63 63 65 65 64 65 65 65 65 65 64 65 63 64 64 63 63 63 63 63 62 62 62 62 63 62 62 61 61 62 62 62 63 63
17 10 15 11 11 12 13 16 19 18 15 18 16 28 31 31 34 43 46 48 49 50 50 51 50 51 53 54 54 54 56 57 58 59 61 61 62 63 63 63 63 63 63 63 63 63 64 63 64 64 64 64 63 63 63 63 64 64 64 63 64 64 65 65 65 65 65 63 63 64 65 65 65 64 64 65 64 63 63 63 63 63 63 63 62 62 62 62 62 61 61 61 61 62 62 63 63
21 16 12 10 14 10 8 19 20 20 14 16 28 35 35 40 41 44 45 49 49 51 52 52 53 52 51 53 54 54 55 56 57 58 60 61 61 62 63 63 63 63 63 63 62 63 63 63 63 63 64 63 63 63 64 64 64 64 64 64 64 64 64 66 65 65 65 64 63 64 64 64 64 64 64 64 64 64 63 63 63 62 62 63 62 62 62 61 61 61 61 61 62 61 62 62 62
24 19 15 13 12 11 9 15 19 27 23 23 19 22 26 38 44 45 46 47 50 51 52 53 54 54 52 52 52 53 54 55 57 58 60 60 61 61 62 63 62 62 62 62 62 61 62 63 63 63 64 63 63 64 64 64 64 64 64 64 64 64 65 65 64 63 63 63 64 64 63 64 64 64 64 64 64 63 63 63 62 62 62 62 62 62 62 61 61 61 61 61 61 61 61 62 62
15 24 15 13 13 12 15 22 18 20 15 21 10 10 24 32 42 44 46 47 49 51 51 52 53 54 55 54 53 53 53 54 56 58 59 60 60 61 62 62 62 61 61 61 61 61 61 62 63 63 63 63 63 63 64 64 64 63 63 63 62 63 63 63 63 62 61 61 62 64 64 64 64 64 64 64 64 64 63 63 62 62 62 62 62 62 62 62 61 61 61 61 61 62 62 61 60
12 13 17 13 11 15 20 20 19 13 10 18 22 11 16 19 41 43 45 46 48 50 51 52 53 53 54 55 55 55 56 57 58 59 59 60 60 61 61 62 61 61 61 60 60 59 60 61 62 62 62 63 63 63 64 64 63 63 63 63 63 63 63 63 64 64 63 63 64 64 64 64 64 64 64 64 64 64 63 63 62 62 63 63 63 62 62 62 61 61 61 61 61 62 62 61 60
9 14 16 13 19 20 21 17 16 15 24 27 20 19 12 21 36 42 45 44 47 48 50 51 52 54 54 55 56 56 57 58 59 59 59 61 61 60 60 60 60 60 60 60 60 59 59 59 60 61 62 63 63 63 63 63 63 62 62 62 62 62 63 63 64 64 64 63 63 64 64 64 64 64 64 64 64 63 63 63 62 62 62 62 63 62 62 62 62 62 62 61 61 61 62 61 60
12 20 17 16 17 21 19 16 19 19 13 9 18 22 15 23 33 43 45 44 46 47 49 50 53 54 54 55 56 56 57 57 58 57 58 58 58 58 58 59 59 60 60 60 60 60 60 61 61 62 62 62 63 63 63 63 63 63 62 62 63 63 63 63 64 64 63 63 63 63 63 63 64 64 63 63 63 63 64 63 63 62 62 63 63 63 62 62 62 61 61 61 61 61 61 61 61
11 21 20 19 21 21 16 18 15 18 12 8 13 22 15 23 38 43 46 45 45 47 49 51 53 54 55 55 55 56 56 57 58 58 58 58 58 58 59 59 59 59 60 60 60 61 61 61 61 61 62 62 62 62 62 62 63 63 63 63 63 63 63 63 64 63 63 62 62 62 63 63 63 63 63 63 63 63 63 63 63 63 63 63 64 63 63 62 62 61 61 61 61 61 61 61 61
15 15 13 14 18 22 26 21 20 17 5 11 16 22 19 25 39 43 44 44 46 47 49 50 52 53 54 55 55 56 56 57 57 58 58 58 59 59 59 59 59 59 59 60 60 61 61 61 61 61 61 63 63 61 61 61 62 62 62 63 63 63 63 63 63 63 63 62 61 61 62 62 62 62 62 63 62 63 63 63 63 63 63 64 64 63 62 62 62 62 62 61 61 61 60 60 60
16 17 15 13 15 18 17 19 18 10 9 16 23 28 21 13 34 43 47 48 48 49 49 50 51 52 53 54 55 56 56 56 57 57 57 57 57 57 58 57 58 58 58 59 60 60 60 61 61 61 61 62 62 62 61 61 61 61 61 61 62 62 63 63 63 62 61 61 62 62 61 61 61 62 62 62 62 62 63 63 63 63 63 63 63 63 62 63 62 62 62 61 61 61 61 61 60
15 17 14 14 11 11 5 13 4 5 10 17 26 25 30 35 39 45 47 48 49 50 50 51 52 52 52 53 53 54 54 54 55 56 56 57 57 56 56 56 57 57 58 58 59 59 60 60 60 61 61 62 62 62 61 60 61 61 62 62 61 62 62 63 62 62 62 62 61 61 61 61 61 61 61 61 61 62 62 62 63 63 63 63 63 62 62 62 62 62 61 61 61 61 61 61 60
14 14 15 13 6 3 1 7 9 12 13 17 23 26 33 40 43 47 48 49 50 51 52 52 52 51 51 51 51 52 52 52 53 53 54 55 55 56 56 57 57 57 58 58 58 59 59 59 60 60 60 61 62 61 60 61 61 61 61 61 62 62 61 61 61 61 61 62 62 61 61 61 60 61 61 61 61 62 62 62 63 63 63 63 63 62 62 62 62 62 61 61 61 61 61 61 61
12 15 13 15 12 7 0 10 3 7 13 19 31 30 31 35 38 48 47 51 51 51 51 51 51 51 51 50 50 50 51 51 51 51 52 52 53 54 55 55 56 57 58 58 58 59 59 59 59 60 60 61 61 60 60 60 61 61 61 61 61 61 61 61 61 61 61 61 61 61 60 60 60 61 61 61 61 62 62 62 62 63 62 62 62 62 62 62 62 62 61 61 61 61 61 61 61
16 14 13 12 13 19 13 15 15 15 18 19 30 27 33 37 46 48 49 51 50 50 49 49 49 49 50 49 49 50 50 50 50 50 50 51 52 52 53 54 55 55 56 56 57 58 58 58 58 59 59 60 61 60 60 60 60 61 60 60 61 61 61 61 61 61 61 61 61 61 60 60 60 60 60 60 61 61 61 62 62 62 62 62 62 61 62 62 62 62 61 61 61 61 61 60 60
19 11 13 16 18 17 14 13 20 18 23 25 27 38 42 43 46 46 48 50 49 49 49 49 48 48 48 48 48 48 49 49 49 49 49 50 50 51 51 52 53 53 54 54 55 56 56 57 57 58 59 59 60 60 60 60 60 60 61 61 61 60 61 61 61 60 61 61 61 60 60 60 60 59 60 60 60 61 61 61 61 61 61 61 61 61 62 62 62 62 61 61 60 61 61 60 60
14 13 13 19 20 20 16 9 10 6 14 21 31 34 37 36 32 44 47 48 48 49 48 48 47 47 47 47 47 47 47 48 48 48 48 48 49 49 50 51 51 52 53 53 53 54 55 55 56 56 57 58 59 59 60 60 60 60 61 61 61 61 61 60 60 60 61 60 60 60 59 59 59 60 60 60 60 60 60 63 61 61 61 61 61 61 61 62 61 61 61 61 61 61 60 60 60
12 14 16 13 10 8 15 14 3 3 15 26 33 35 35 32 33 41 44 46 47 47 47 46 45 45 45 45 45 45 46 46 46 47 47 47 48 48 49 49 50 50 51 52 52 53 53 53 54 55 55 58 59 59 59 59 60 59 60 61 61 61 61 61 60 60 60 60 60 59 59 60 59 60 60 60 60 60 60 61 60 60 60 60 61 61 61 61 61 61 60 60 60 61 60 60 59
14 14 12 23 19 18 10 12 14 11 6 25 30 34 30 35 37 44 45 47 47 47 46 45 44 44 44 44 44 45 45 45 45 45 45 46 47 47 48 48 48 49 50 50 51 52 52 52 53 53 54 55 56 58 59 60 60 59 60 60 61 61 61 61 60 59 57 59 59 59 59 59 59 60 59 59 60 60 60 60 59 60 60 60 60 60 61 61 61 61 60 60 60 60 60 60 59
13 15 13 13 20 23 16 19 11 13 17 22 27 27 31 34 38 45 47 48 47 47 45 44 43 44 43 43 43 43 44 43 44 44 44 45 45 46 46 47 47 48 48 48 50 50 50 51 51 52 52 53 53 54 56 58 60 59 60 61 61 60 60 60 60 60 59 59 59 59 59 59 59 59 60 59 59 60 60 59 59 59 59 59 59 59 60 60 60 60 60 60 60 60 60 60 60
13 14 15 14 15 12 11 9 22 20 22 23 25 23 28 36 47 47 48 48 48 47 44 43 42 42 42 42 42 42 42 42 43 43 42 42 43 46 45 46 46 46 47 47 47 48 48 49 50 50 51 51 52 52 54 56 57 60 60 60 61 60 60 59 59 59 59 59 59 59 60 59 59 59 59 59 59 59 59 59 59 59 59 59 59 59 59 59 60 59 59 59 60 60 60 59 60